FLOCK 3P-55 (42041 NORAD) Tracking and Keplerian Element Data

This shows tracking and keplerian element data for the satellite.

Feedback or suggestion? Click here.




ElementValue
Catalog42041
NameFLOCK 3P-55
Epoch Orbit17379
Epoch Day92.07873597
Epoch Year2020
RAAN160.9091
Inclination97.3708
Eccentricity0.0005814
Argument of Perigee223.8339
Mean Anonmoly136.2438
Mean Motion15.26169876
Decay Rate1.326E-05
L11 42041U 17008CX 20092.07873597 .00001326 00000-0 54114-4 0 9997
L22 42041 97.3708 160.9091 0005814 223.8339 136.2438 15.26169876173796

Live tracking and technical data element details for FLOCK 3P-55 (NORAD 42041). FLOCK 3P-55 can be tracked NOW for your location showing map with azimuth and elevation plus other details from your city location.

Track the satellite on the map from your city or location and see movement details for azimuth, elevation, latitude, longitude, range, height, and movement on the map or in text.







IsCatalogInMostPopularTable: catalog: 42041, numindb: 352
Update: records affected: 1



GetName: 42041 FLOCK 3P-55

Hit Count: updated at: Thu, 02 Apr 2020 11:57:36 GMT